Weather in Svetogorsk

Russia / Saint-Petersburg and Leningrad Oblast     61°06′40″N   28°52′21″E
temp.,
°C
wind,
m/s
gust,
m/s
humid.,
%
clouds,
%
prec.,
mm/h
press.,
hPa
HPBL,
m
21 january, thu
thu2100:00−11se269494 0.0 1010192
03:00−11ese369197 0.0 1010226
06:00−11ese3886100 0.0 1007300
09:00−10ese4982100 0.1 1007357
12:00−10ese41089100 0.2 1006383
15:00−9ese51292100 0.7 1005491
18:00−8ese61393100 1.4 1004590
21:00−8ese51194100 4.9 1002580
22 january, fri
fri2200:00−8ese51191100 1.6 1000499
03:00−7se4994100 2.3 998373
06:00−5se3896100 0.3 997281
09:00−1sse3798100 0.8 998274
12:000s3698100 0.1 998253
15:000sse3798100 0.2 997314
18:000sse3999100 1.3 996374
21:00+1s3898100 1.6 996366
23 january, sat
sat2300:00+1s51098100 0.2 995435
03:00+1s51198100 3.5 995432
06:00+1s41098100 3.6 996442
09:00+1s4998100 4.1 997377
12:00+1ssw3899100 0.2 998343
15:00+1ssw379898 0.2 999369
18:00−1s2597100 0.0 1000139
21:00−2s2596100 0.0 1001138
24 january, sun
sun2400:00−3sse229696 0.0 100237
03:00−1ese249898 0.0 1002147
06:00+1e3798100 0.6 1000214
09:00+1ese3899100 1.8 998270
12:00+1se3799100 2.1 998271
15:00+1sse2899100 3.3 997315
18:00+1sse3799100 1.0 998257
21:00+1se2599100 1.4 998173
25 january, mon
mon2500:00+1ese2499100 0.3 997139
03:00+1ese2499100 1.6 996145
06:00+1e2499100 0.9 995142
09:00+1e2699100 2.8 994158
12:00+2se2799100 2.3 994248
15:00+2ese2499100 2.8 995144
18:00+2sse1299100 0.1 99733
21:00+1ssw41098100 0.4 1000393